Location: McMath-Hulbert Observatory
(42.6964°N, 83.3187°W)
Time: 18:29:08
(UTC-04:00)

Daily predictions for brighter satellites

Satellite Brightness Start Highest point End
(mag) Time Altitude Azimuth Time Altitude Azimuth Time Altitude Azimuth
Cosmos 1818 3.9 20:12:05 10° NNW 20:17:25 51° NE 20:22:41 10° SE
Helios 1A 4.4 20:18:16 10° ESE 20:21:18 20° ENE 20:24:22 10° NNE
ISS -2.0 20:25:06 10° S 20:27:08 16° SE 20:29:11 10° E
Cosmos 1821 Rocket 4.3 20:21:25 10° S 20:27:49 80° W 20:34:11 10° N
In-Cosmos 22 4.1 20:22:39 10° N 20:27:57 64° ENE 20:33:10 10° SSE
GP-B 4.3 20:27:08 10° SE 20:30:38 23° ENE 20:34:10 10° NNE
Cosmos 1378 4.2 20:27:34 10° NNW 20:31:14 50° W 20:34:50 10° S
Cosmos 2344 3.8 20:23:38 10° SW 20:31:17 89° WNW 20:40:01 10° NE
Cosmos 1844 Rocket 4.2 20:28:12 10° SW 20:33:30 41° WNW 20:38:49 10° NNE
USA 186 2.8 20:33:16 12° E 20:34:12 15° ENE 20:35:36 10° NNE
Meteor 1-4 Rocket 3.1 20:31:05 10° SSE 20:34:15 34° E 20:37:27 10° NNE
CZ-2D R/B 3.8 20:30:49 10° SE 20:34:24 38° ENE 20:38:02 10° N
USA 215 4.4 20:30:18 10° ENE 20:34:53 20° ESE 20:39:27 10° SSE
Cosmos-2242 4.2 20:32:41 10° SE 20:35:54 21° E 20:39:09 10° NE
RESURS DK-1 3.5 20:32:58 10° NW 20:36:56 46° WSW 20:40:53 10° S
Cosmos 1805 3.3 20:34:22 10° S 20:38:09 53° E 20:41:59 10° NNE
Resurs 01 Rocket 1.6 20:34:08 10° SSE 20:38:29 62° ENE 20:42:52 10° N
FREGAT/IRIS 4.2 20:38:33 10° S 20:41:28 40° W 20:44:23 10° NNW
FENGYUN 3A 3.8 20:38:25 10° SSE 20:43:50 82° WSW 20:49:16 10° NNW
Cosmos 1833 Rocket 3.0 20:39:14 10° NNW 20:44:40 48° ENE 20:50:05 10° SE
Cosmos 1544 3.0 20:41:14 10° S 20:44:50 64° E 20:48:29 10° NNE
Lacrosse 5 2.6 20:40:51 10° WSW 20:45:51 56° NW 20:50:51 10° NE
Cosmos 1605 Rocket 4.0 20:39:42 10° S 20:45:58 79° E 20:52:21 10° N
Spot 2 Rocket 3.5 20:46:17 10° SSE 20:51:22 80° ENE 20:56:31 10° NNW
Cosmos 2278 Rocket 2.7 20:47:36 10° SW 20:53:13 65° WNW 20:58:53 10° NNE
Cosmos 1867 3.6 20:48:55 10° SSW 20:54:16 62° ESE 20:59:41 10° NE
Cosmos 1470 3.5 20:51:44 10° SSE 20:55:16 31° E 20:58:47 10° NNE
BREEZE-M DEB (TANK) 3.6 20:55:47 10° SSW 20:58:54 37° SE 21:07:28 10° ENE
Cosmos 1733 3.9 20:55:31 10° SSE 20:58:58 32° E 21:02:26 10° NNE
Cosmos 2123 Rocket 4.5 20:53:21 10° NNW 20:59:37 65° W 21:05:47 10° S
ATLAS 5 CENTAUR R/B 2.1 20:55:34 10° S 20:59:58 43° ESE 21:04:44 10° NE
Timation 1 Rocket 4.3 20:58:24 10° SSW 21:04:25 89° ESE 21:10:29 10° NNE
Cosmos 1340 Rocket 3.4 21:01:35 10° N 21:05:21 36° ENE 21:07:16 22° SE
Envisat 3.3 21:05:45 16° SE 21:09:33 45° ENE 21:14:23 10° N
Cosmos 2297 3.7 21:04:33 10° SSW 21:10:16 83° ESE 21:16:02 10° NNE
H-2A R/B 3.6 21:07:23 10° S 21:11:11 51° W 21:15:03 10° NNW
Cosmos 1802 Rocket 4.3 21:05:52 10° SSE 21:11:32 41° E 21:17:16 10° NNE
Cosmos 1184 Rocket 4.1 21:12:28 10° NNE 21:15:03 24° ENE 21:15:03 24° ENE
Resurs 1-3 4.1 21:12:06 10° S 21:16:25 60° W 21:20:46 10° NNW
Cosmos 1125 Rocket 3.7 21:14:21 10° SSW 21:19:31 74° WNW 21:24:46 10° NNE
Cosmos 1408 Rocket 3.5 21:16:07 10° N 21:20:37 88° ENE 21:25:04 10° S
H-2A R/B 4.1 21:21:37 11° ENE 21:21:49 11° ENE 21:23:19 10° NE
Cosmos 1048 Rocket 4.1 21:16:49 10° NNW 21:21:56 74° WSW 21:26:59 10° SSE
Geosat 3.9 21:16:53 10° NNE 21:21:57 77° ESE 21:26:57 10° SSW
Cosmos 2082 Rocket 2.3 21:17:05 10° NNW 21:22:48 79° WSW 21:27:52 13° SSE
CZ-4B DEB 4.4 21:20:54 24° SSE 21:22:55 76° ENE 21:26:32 10° N
CZ-3 Stage 3 4.1 20:43:06 10° WSW 21:23:57 49° SSW 21:29:16 23° SE
CZ-2C R/B 4.3 21:23:12 10° NW 21:24:18 14° W 21:25:18 10° WSW
ERS-1 Rocket 3.7 21:23:18 28° ESE 21:24:49 34° ENE 21:29:21 10° N
SeaSat 1 3.9 21:21:00 10° S 21:25:30 36° WSW 21:30:03 10° NW
Cosmos 2061 Rocket 4.0 21:20:36 10° S 21:26:52 61° E 21:33:12 10° NNE
SL-14 R/B 4.1 21:27:13 10° N 21:30:24 32° ENE 21:30:24 32° ENE
Timation 2 Rocket 3.9 21:24:57 10° NNW 21:31:18 84° WSW 21:35:50 19° SSE
Cosmos 2151 4.0 21:29:17 10° NNE 21:32:36 28° ENE 21:32:36 28° ENE
ARGOS 4.4 21:32:39 22° ENE 21:33:04 22° ENE 21:37:05 10° NNE
Cosmos 1842 Rocket 3.9 21:34:35 41° ESE 21:34:57 42° E 21:39:07 10° NNE
Cosmos 1328 4.1 21:31:56 10° N 21:35:45 44° ENE 21:35:45 44° ENE
GPS 2-05 Rocket1 4.4 21:33:39 10° SW 21:36:15 25° S 21:36:15 25° S
Cosmos 1953 3.8 21:33:15 10° SSW 21:37:04 39° WNW 21:40:54 10° N
Cosmos 1271 Rocket 2.8 21:33:31 10° SSW 21:37:32 81° W 21:41:35 10° N
Cosmos 1459 Rocket 3.9 21:31:25 10° S 21:37:40 80° E 21:43:50 10° N
Helios 1B rocket 2.6 21:33:47 10° N 21:37:55 75° WNW 21:42:01 10° SSW
BREEZE-M DEB (TANK) 3.2 21:39:28 10° NW 21:41:29 34° NNE 21:41:29 34° NNE
Cosmos 2173 Rocket 3.9 21:38:31 10° S 21:44:41 88° E 21:51:00 10° N
Cosmos 1939 Rocket 2.8 21:44:14 45° SSE 21:45:28 85° ENE 21:49:40 10° N
Meteor 1-29 3.3 21:42:46 10° N 21:46:14 66° WNW 21:49:25 12° SSW
YAOGAN 6 3.4 21:47:37 40° NE 21:47:37 40° NE 21:50:29 10° N
Cosmos 1674 4.0 21:44:56 10° NNW 21:48:29 39° W 21:51:30 13° SSW
CZ-4B DEB 3.8 21:52:57 38° WSW 21:53:24 41° W 21:56:22 10° NNW
Helios 1A 4.4 21:53:10 12° SSW 21:56:38 37° W 22:00:32 10° NNW
Lacrosse 5 rocket 1.3 21:54:28 10° NW 21:58:14 65° WSW 21:58:14 65° WSW
Cosmos 2251 Rocket 3.4 21:55:03 10° NNW 22:00:24 75° ENE 22:01:25 57° SE
Meteor 2-17 Rocket 4.3 21:54:53 10° S 22:01:01 84° E 22:07:12 10° N
ISS -2.4 22:00:02 10° WSW 22:02:04 34° WSW 22:02:04 34° WSW
CZ-3B DEB 3.9 22:04:27 10° W 22:11:22 28° NNW 22:14:42 13° NNE
Cosmos 2369 Rocket 4.0 22:18:37 17° NE 22:18:37 17° NE 22:19:55 10° NE
Cosmos 2016 Rocket 4.1 22:10:29 10° SSW 22:16:42 73° W 22:22:52 10° N
Cosmos 1626 4.5 22:13:36 10° N 22:14:33 16° NNE 22:14:33 16° NNE
USA 215 3.1 22:11:59 10° NE 22:18:33 78° SE 22:25:04 10° SW
MetOp-B 4.0 22:23:52 76° ENE 22:23:52 76° ENE 22:29:08 10° N
Cosmos 1725 Rocket 3.9 22:23:25 44° S 22:25:36 89° W 22:31:50 10° N
Cosmos 1356 Rocket 4.3 22:23:47 10° NNW 22:27:16 46° WNW 22:27:16 46° WNW
Lacrosse 5 4.2 22:26:04 10° WNW 22:29:47 20° NNW 22:33:30 10° NNE
SPOT 5 3.2 22:33:35 69° NNE 22:33:35 69° NNE 22:38:20 10° N
NOAA 11 4.1 22:34:16 85° NNW 22:34:16 85° NNW 22:39:40 10° NNW
H-2A R/B 4.4 22:40:21 15° NNE 22:40:21 15° NNE 22:41:12 10° N
Tsikada Rocket 4.2 22:38:35 10° NNW 22:44:45 67° W 22:45:44 58° SW
ATLAS 5 CENTAUR R/B 3.7 22:40:35 10° WSW 22:44:48 29° NW 22:49:23 10° NNE
Terra 3.9 22:47:55 19° NNE 22:47:55 19° NNE 22:49:33 10° N
USA 267 3.5 22:50:51 55° NE 22:51:16 56° NNE 22:57:38 10° NW
Cosmos 2346 Rocket 4.5 22:45:47 10° N 22:51:27 75° N 22:51:27 75° N
H-2A R/B 3.1 23:02:14 41° N 23:02:14 41° N 23:05:40 10° N
MOS 1-B Rocket 4.4 23:04:48 85° SE 23:05:01 88° ENE 23:12:01 10° NNW
ARGOS 4.1 23:14:10 44° WNW 23:14:10 44° WNW 23:18:10 10° NNW
